GEFSMA_500_meanwind_204.txt.gz
Wind_Speed
19 19 19 20 20 20 21 20 19 20 20 20 20 20 20 20 20 21 21 22 22 23 23 24 24 25 25 25 26 26 27 28 28 27 27 26 26 27 27 27 26 26 26
19 19 19 19 20 20 19 19 20 20 20 20 20 20 21 21 22 23 23 23 23 24 24 25 26 26 27 27 27 28 29 29 30 30 29 29 28 28 28 28 28 28 27
19 20 19 20 20 20 19 19 19 20 20 21 20 21 21 22 22 22 23 24 24 25 25 26 27 28 28 29 29 29 30 31 31 31 31 31 30 29 29 29 29 29 29
21 21 20 20 20 19 19 19 19 19 20 21 21 21 21 21 21 22 23 24 25 26 27 27 28 28 29 30 30 30 31 32 32 32 32 32 32 31 31 31 30 30 30
21 20 19 19 19 19 18 19 19 20 20 21 22 22 22 22 23 23 24 25 26 27 28 28 28 29 30 31 31 31 32 33 33 34 34 33 33 33 32 32 32 32 32
17 17 17 19 18 18 19 19 20 21 20 21 21 21 22 23 23 24 25 26 26 27 28 28 29 29 30 31 32 32 32 34 34 34 35 35 35 35 34 33 34 34 33
17 17 17 18 18 19 19 20 20 20 20 21 21 21 22 22 23 24 25 26 27 27 27 27 28 29 29 30 31 33 33 33 34 35 36 35 35 35 36 35 35 35 35
17 17 18 18 18 19 20 20 20 20 21 21 21 22 22 23 24 24 26 26 27 27 26 26 27 28 30 30 30 32 33 33 34 35 36 36 36 37 37 37 37 36 36
17 17 18 18 19 20 20 20 20 20 21 21 22 22 23 23 24 25 25 26 26 27 27 27 27 28 28 30 30 30 30 31 32 33 35 36 37 38 38 38 38 38 37
18 18 19 19 19 20 20 20 21 21 22 22 22 23 23 24 24 24 25 26 26 26 27 27 27 26 27 28 29 30 31 31 30 31 33 35 36 37 38 38 38 38 38
18 18 19 20 20 20 20 20 21 22 22 23 23 24 24 24 24 24 24 25 26 26 27 27 27 27 27 27 28 28 30 31 31 31 32 33 34 35 35 37 36 37 37
18 19 20 20 20 21 21 21 22 21 22 23 23 24 24 25 24 24 24 25 26 26 27 27 27 27 28 28 28 28 29 30 31 32 32 33 34 34 34 35 35 36 36
19 20 20 20 20 21 21 22 21 21 22 22 23 24 24 25 24 24 24 24 25 25 26 26 26 26 27 27 28 28 29 29 30 31 32 33 34 34 34 34 34 35 36
19 19 20 20 20 20 21 21 22 21 22 22 23 24 24 25 24 24 24 24 24 24 25 26 27 27 27 27 27 28 27 27 28 29 30 32 33 33 34 34 35 35 36
20 20 20 20 20 20 21 21 21 22 23 23 23 23 24 24 24 24 24 24 24 23 24 25 25 26 26 26 27 27 26 26 26 27 30 31 32 33 34 34 35 35 35
20 20 20 20 21 21 21 21 21 22 23 23 23 23 24 24 23 23 23 24 23 23 23 24 24 24 24 24 25 26 26 26 27 26 27 29 30 31 33 33 34 34 35
20 20 20 19 20 20 20 21 21 22 22 23 23 23 23 23 22 22 23 23 23 23 22 22 23 23 23 23 23 24 26 26 27 27 28 29 29 30 31 31 32 33 34
19 19 19 19 18 18 19 19 20 21 21 22 22 22 22 22 22 21 22 22 23 22 22 21 22 22 22 22 22 22 24 25 26 27 27 28 28 29 30 30 31 32 33
17 18 17 17 18 17 17 17 18 20 20 21 21 22 21 22 21 21 22 22 23 22 22 22 21 21 21 21 22 22 23 24 24 26 27 27 27 28 29 31 31 31 32
16 16 17 17 17 17 17 17 18 20 20 20 21 21 22 22 22 22 22 23 23 23 23 23 22 21 21 22 22 22 24 24 24 26 26 27 27 28 29 30 30 31 31
15 15 16 15 15 16 16 16 18 19 19 20 21 22 22 22 22 22 23 23 23 23 23 23 23 23 22 22 22 23 23 23 23 24 25 25 26 27 28 29 30 30 30
15 14 14 14 15 15 16 17 18 18 19 20 21 21 21 21 22 22 22 22 22 23 23 23 24 24 23 23 23 23 23 23 24 23 24 24 25 25 27 28 29 30 30
13 13 13 14 15 16 16 17 18 18 19 20 21 21 22 22 22 22 22 22 23 23 24 24 25 25 25 24 24 24 23 24 25 25 24 25 25 26 26 27 28 29 29
13 14 14 15 16 16 17 18 18 19 19 20 21 22 22 22 23 23 23 23 24 24 25 25 26 25 25 25 25 25 25 25 25 25 25 25 25 26 26 26 26 26 26
13 13 14 15 16 17 18 18 19 19 19 20 21 21 22 23 23 23 23 24 24 25 25 26 26 26 26 26 25 25 25 25 25 24 24 24 24 24 24 24 25 25 25
12 13 13 15 16 17 17 18 19 19 20 20 21 21 22 23 23 24 24 25 25 25 25 26 25 25 25 25 25 25 24 23 24 24 24 24 24 24 23 23 23 24 25

GEFSMA_500_meanwind_210.txt.gz
Wind_Speed
19 19 20 21 21 21 21 20 19 19 19 19 19 19 19 19 19 19 19 19 19 19 20 21 21 22 23 23 24 24 25 25 26 26 26 26 27 27 27 27 27 27 28
20 21 21 22 22 21 21 20 20 19 18 18 19 19 20 20 19 20 20 20 20 21 21 22 23 24 24 25 26 26 27 27 28 28 28 28 28 28 28 29 29 29 28
21 22 22 22 22 21 20 20 20 19 19 19 19 19 20 20 20 20 20 21 21 21 22 23 24 25 26 26 27 27 28 28 29 30 30 30 30 29 30 30 30 30 30
21 22 21 21 21 20 20 19 19 18 19 19 19 19 19 20 20 20 20 21 22 22 23 24 24 25 26 27 28 28 28 29 30 31 32 32 32 31 31 31 31 31 31
22 22 22 20 20 19 19 19 19 19 20 20 19 19 19 19 19 20 21 21 22 22 23 24 25 25 25 26 27 28 28 29 31 32 33 33 34 34 34 33 33 34 33
22 22 21 20 20 19 19 19 19 20 20 20 20 20 20 20 20 20 21 21 22 23 23 24 25 25 25 25 26 26 28 29 30 32 33 33 34 35 35 36 35 35 36
21 21 20 20 20 19 19 19 20 20 20 20 20 20 20 21 20 21 21 21 22 23 23 24 24 25 25 26 26 27 27 28 29 31 32 33 34 34 35 35 35 36 36
21 20 19 20 19 19 19 19 19 20 20 20 20 20 21 20 21 21 21 22 23 23 23 24 24 24 25 25 26 26 26 27 28 29 31 33 34 35 35 36 36 36 37
20 20 19 20 20 20 20 19 20 20 20 20 21 21 21 21 21 22 22 23 23 24 24 24 24 24 24 24 25 26 27 28 28 28 29 31 33 34 35 36 37 37 37
21 20 21 22 21 20 20 20 21 21 21 21 22 22 22 22 22 22 23 23 24 24 24 24 24 24 24 24 25 25 26 26 27 28 29 30 31 32 34 35 35 35 36
22 21 22 21 20 20 19 20 21 21 22 23 23 23 23 23 23 23 23 23 24 24 25 25 25 25 25 25 25 24 25 26 27 28 29 29 31 31 33 34 34 34 35
22 22 22 21 21 20 20 20 21 22 22 23 23 23 23 23 24 23 24 24 25 25 25 25 25 25 24 24 25 25 25 26 27 28 28 29 30 31 32 33 34 34 34
21 22 21 20 21 21 21 22 22 23 23 23 23 23 23 23 24 24 24 24 24 25 25 25 25 25 25 25 25 25 25 26 27 27 27 28 28 29 31 32 33 34 34
21 22 21 21 21 22 22 23 23 23 23 23 23 23 23 24 25 24 24 24 24 24 25 25 25 25 26 26 26 26 26 26 26 27 27 27 28 29 30 31 32 33 34
21 21 21 21 22 22 22 23 23 23 23 23 23 23 24 24 25 25 25 26 25 25 25 26 26 27 27 28 27 26 27 27 27 26 26 27 28 29 30 31 32 33 34
20 20 20 20 21 22 22 23 22 22 22 22 22 23 24 25 25 25 25 25 26 26 26 26 27 28 28 28 27 27 27 26 26 26 26 27 28 29 30 31 33 34 34
19 18 18 19 19 21 22 21 21 21 22 22 23 23 24 24 25 26 26 26 27 27 28 27 28 28 28 28 27 26 26 26 26 26 27 28 28 29 30 30 32 33 34
17 17 18 18 19 20 20 20 20 21 22 22 23 24 24 24 25 26 26 27 27 27 28 27 28 28 28 27 27 26 26 26 26 26 27 27 28 28 29 30 31 32 34
16 17 17 18 18 19 20 20 20 21 22 23 24 24 25 25 25 26 27 27 27 27 27 27 27 27 26 26 27 27 26 27 27 26 27 27 28 28 29 30 32 33 34
16 17 17 17 18 19 19 20 20 21 22 23 23 24 24 25 25 26 27 27 27 27 27 27 26 26 26 26 27 27 27 27 27 27 27 28 28 29 29 30 30 32 33
14 16 17 17 18 18 19 20 21 21 22 22 23 24 24 25 26 27 28 28 27 27 26 26 27 27 26 27 27 27 27 26 27 28 27 28 28 28 28 28 29 30 32
14 15 16 16 18 18 19 20 20 21 22 23 23 23 24 25 26 27 28 27 27 27 27 27 27 26 26 27 28 28 28 27 27 27 28 27 27 26 27 28 27 28 29
13 14 15 16 17 18 18 19 19 20 21 22 22 23 24 26 26 26 26 26 27 27 27 27 26 26 26 27 28 28 28 29 27 27 27 26 25 25 25 25 26 27 28
13 14 15 16 17 17 18 19 20 20 21 22 23 24 25 25 26 26 26 26 26 26 26 26 27 27 27 27 27 27 27 26 26 26 25 25 25 24 23 24 25 25 26
13 14 14 16 16 18 19 20 20 21 22 23 24 25 26 27 27 26 26 25 25 25 26 26 27 27 27 27 27 26 26 26 26 25 25 24 24 23 22 23 23 23 24
13 14 15 16 16 18 19 20 20 21 22 23 25 26 26 27 26 26 25 25 25 26 26 27 26 26 26 26 26 26 26 26 26 25 24 24 23 22 22 22 22 22 22

GEFSMA_500_meanwind_216.txt.gz
Wind_Speed
17 17 16 15 15 16 16 16 17 17 16 16 16 15 14 15 16 16 16 17 17 18 18 19 19 19 20 21 22 22 22 23 23 24 25 25 26 27 27 27 27 28 28
17 17 16 16 16 16 16 16 17 17 16 16 15 15 16 16 16 17 17 17 18 18 18 19 19 19 20 21 22 22 23 24 24 25 26 27 28 28 29 29 29 29 30
17 16 16 16 16 16 16 16 16 15 15 15 15 16 16 17 17 17 17 17 18 18 19 19 19 20 20 21 22 22 24 25 25 26 26 28 29 30 31 32 31 31 31
17 16 16 16 16 16 16 16 15 15 15 16 16 17 17 17 17 17 17 18 18 19 19 19 19 20 20 21 22 23 24 25 27 27 27 28 30 31 32 33 33 33 33
16 16 16 16 16 15 15 15 16 16 16 17 17 17 17 17 17 17 18 18 18 19 19 20 20 20 20 21 22 23 24 25 26 27 28 29 30 31 33 34 35 35 34
16 16 16 16 15 15 15 16 16 16 17 17 17 17 17 17 17 18 18 18 19 19 20 20 20 20 20 21 22 24 24 25 26 27 28 29 29 31 32 34 35 36 36
16 16 16 15 15 15 16 16 17 17 17 18 18 18 18 18 18 18 18 18 19 19 20 21 22 22 22 23 24 25 25 26 27 27 28 29 30 30 31 32 35 37 37
16 16 16 16 15 16 17 17 17 18 18 18 19 19 19 19 19 19 19 20 20 21 22 23 23 24 24 24 25 25 26 26 27 28 29 29 30 31 31 32 33 36 37
15 15 16 16 17 17 18 18 18 18 19 19 19 19 19 20 20 20 21 21 22 22 23 23 24 25 25 25 25 25 26 26 27 28 29 29 30 31 31 31 32 33 36
16 16 17 17 18 18 18 19 19 19 19 20 20 20 20 21 21 21 21 22 23 24 24 24 24 25 26 26 26 26 26 27 27 27 28 29 29 29 31 32 32 33 35
17 18 18 18 19 20 20 20 20 20 21 21 21 21 21 22 22 22 22 23 24 24 24 25 26 26 27 27 28 28 27 28 27 28 28 29 29 30 31 32 32 33 34
17 18 19 19 19 20 21 21 20 20 21 21 21 21 21 22 23 24 24 24 24 25 26 26 27 28 29 29 29 29 29 29 29 29 29 30 30 30 30 31 32 32 33
18 18 19 19 19 19 19 19 19 19 20 20 21 21 22 23 23 24 24 24 25 26 26 27 28 29 30 30 30 30 30 30 30 30 30 30 31 32 32 32 32 32 33
18 18 19 19 19 19 19 19 18 19 20 21 21 22 23 23 23 24 24 25 25 26 27 28 29 29 29 29 30 31 31 31 31 31 31 31 32 32 33 33 33 33 33
18 19 18 18 18 18 19 18 19 19 20 21 22 23 23 23 24 24 25 26 26 26 26 27 28 29 29 29 30 30 30 30 31 31 32 33 32 32 33 33 34 34 34
17 17 17 18 17 18 18 18 19 20 20 21 22 23 23 23 24 25 26 26 26 27 26 26 28 29 30 30 30 31 31 31 31 31 31 32 32 32 33 33 34 35 36
16 16 17 17 17 17 18 19 20 20 20 21 21 22 23 24 25 25 26 26 26 27 26 26 27 28 29 29 30 30 31 31 31 31 31 32 32 32 33 33 34 35 36
15 15 16 16 16 17 18 18 19 19 19 20 21 22 22 23 24 24 25 25 26 26 27 27 27 27 28 29 29 29 30 30 30 30 31 31 32 32 32 32 33 35 35
14 14 14 14 15 16 17 17 17 18 19 20 21 21 22 23 24 24 25 25 26 27 27 27 27 27 28 28 28 29 29 30 31 31 31 31 31 32 32 32 33 34 35
12 13 13 14 15 15 15 16 17 17 18 19 21 22 23 23 24 24 24 25 26 27 27 27 26 26 27 28 29 29 29 30 30 30 31 31 31 31 32 33 33 35 35
11 12 13 14 15 15 15 16 17 18 18 19 20 21 22 23 23 23 24 24 26 26 27 26 26 27 27 27 28 28 28 28 28 29 30 30 31 32 32 32 33 33 34
11 12 13 14 14 15 15 15 16 17 17 18 19 20 21 22 22 23 24 24 25 25 25 26 26 26 27 28 28 28 29 29 28 28 29 29 30 31 31 32 32 33 33
11 11 12 12 13 14 15 15 16 16 17 18 19 20 21 22 22 23 24 24 25 25 26 26 27 27 29 29 28 28 29 28 27 27 28 29 30 31 30 31 31 31 32
10 10 11 12 12 13 14 15 16 16 17 18 19 21 21 22 23 23 24 25 26 26 27 28 28 29 29 29 28 28 28 27 27 27 28 28 29 30 30 30 31 31 30
9 9 11 11 12 13 14 15 15 16 18 20 21 22 23 23 24 25 25 26 27 27 28 29 29 30 29 29 29 28 28 28 27 27 27 27 27 28 28 29 29 29 29
8 9 11 12 13 14 15 16 17 17 19 21 22 23 25 25 25 26 26 27 28 28 29 29 29 29 29 29 28 27 27 27 27 27 27 27 26 27 26 27 28 28 28

GEFSMA_500_meanwind_222.txt.gz
Wind_Speed
16 16 16 16 17 17 16 16 16 16 16 17 17 17 17 17 17 17 17 17 17 17 18 18 19 20 20 19 20 20 20 20 20 21 22 22 23 23 24 25 25 26 26
17 16 16 16 16 16 16 16 16 16 15 16 17 17 17 17 17 17 17 17 18 18 18 19 20 20 21 21 21 22 22 22 22 22 22 23 24 24 24 25 26 27 27
17 18 17 16 16 16 17 17 17 16 16 16 17 17 17 17 16 17 18 18 19 19 20 20 20 21 21 22 22 22 23 23 23 23 24 24 25 25 25 26 27 28 29
18 17 16 16 16 17 17 17 17 18 17 17 17 17 17 17 17 17 18 19 19 20 21 22 22 22 22 22 23 23 23 24 25 25 25 26 26 27 27 27 28 28 29
17 17 17 17 17 17 17 17 17 18 18 18 17 18 18 18 18 18 19 20 20 21 21 22 22 23 23 23 23 24 24 24 25 26 27 27 27 28 28 29 29 29 30
17 17 17 17 17 17 17 17 18 18 18 18 18 19 19 19 20 20 21 21 22 22 22 22 22 23 23 24 25 25 25 25 25 26 27 28 28 29 30 31 31 31 31
17 17 17 16 17 18 17 18 19 19 19 19 19 20 20 20 21 22 22 23 23 23 23 23 23 23 23 24 25 26 27 27 27 28 28 29 29 30 30 31 31 32 32
16 15 16 16 17 17 17 17 19 20 21 21 21 21 20 21 22 22 23 24 24 24 25 25 25 24 24 25 26 27 27 28 29 30 29 29 30 31 31 32 31 32 32
16 16 16 17 17 17 18 18 20 20 21 21 20 21 21 21 21 22 23 24 24 24 25 25 25 25 26 26 27 28 29 29 30 30 30 30 31 32 32 33 33 32 32
16 17 17 16 17 18 19 20 20 21 21 21 21 21 22 22 22 22 23 24 24 25 25 25 26 27 27 27 28 29 30 30 31 31 31 32 32 32 33 33 33 33 33
17 17 16 17 17 18 19 19 20 20 21 21 21 22 23 23 23 23 24 24 25 25 26 26 26 27 28 29 29 30 31 31 32 33 33 33 33 33 33 33 33 33 33
17 17 18 18 18 19 19 20 21 21 22 21 21 22 23 23 24 24 25 25 25 26 27 27 28 28 29 30 30 31 32 32 32 33 33 34 33 33 33 33 34 34 34
16 18 19 19 19 19 20 20 21 21 21 21 22 23 23 24 25 25 25 25 25 26 27 28 29 29 29 29 30 31 31 32 32 33 33 34 34 34 34 34 34 35 35
17 18 19 19 19 20 20 21 21 21 21 22 22 23 23 24 26 26 26 26 26 27 27 28 29 29 29 29 29 30 31 32 33 34 34 35 35 36 36 35 35 36 36
17 18 19 19 19 20 21 21 20 20 20 21 23 23 23 24 26 27 27 27 27 27 27 29 29 29 30 30 30 30 31 32 32 33 34 35 35 36 37 37 37 37 37
17 18 18 19 19 20 20 20 20 21 22 23 23 24 24 25 26 26 27 27 28 28 28 28 29 29 30 31 31 31 32 32 33 33 33 34 35 35 36 37 38 38 38
16 17 18 18 19 20 20 20 21 22 22 23 24 24 24 25 26 26 26 26 27 28 27 27 28 29 30 31 32 32 33 32 32 32 33 33 34 35 36 37 38 39 39
15 16 17 18 18 19 19 19 20 21 22 22 23 24 24 24 25 25 26 27 28 28 28 27 28 29 30 31 31 32 32 32 31 31 32 33 34 35 35 36 37 38 38
14 15 16 16 16 17 17 18 20 20 21 21 22 23 24 24 24 25 26 27 28 29 29 29 29 30 30 30 30 30 30 30 30 31 32 33 33 35 36 36 37 37 38
14 14 14 14 14 15 16 17 18 19 19 20 21 22 23 23 24 25 26 27 28 29 29 29 29 30 30 30 29 29 29 30 31 32 33 33 33 35 36 36 37 37 38
12 12 12 12 13 14 16 16 17 18 19 20 21 22 23 23 24 24 26 27 29 29 29 29 29 29 29 29 29 30 30 30 31 32 33 33 34 35 35 36 36 36 37
11 11 11 11 13 15 16 16 17 18 19 20 21 22 23 24 24 25 27 29 29 29 29 29 30 29 28 28 29 30 31 31 31 32 33 33 34 35 35 36 37 37 37
10 10 10 12 13 14 16 16 17 18 19 20 21 22 23 24 25 27 28 29 29 29 29 30 29 29 28 29 30 30 31 31 32 32 32 33 33 34 35 36 36 37 37
10 10 11 12 14 15 15 16 17 18 19 21 22 23 24 25 25 27 28 29 29 29 29 29 29 29 30 30 30 30 30 31 31 31 32 33 33 33 33 33 34 34 35
10 11 11 13 14 15 16 16 17 18 19 21 22 24 25 26 27 28 28 29 29 29 30 30 30 30 30 30 30 30 30 30 30 30 31 31 31 31 31 32 32 32 33
10 10 11 13 15 15 16 17 17 18 20 21 23 25 26 27 28 29 29 30 29 30 30 30 30 31 31 31 31 30 29 29 29 29 30 29 29 29 29 30 31 31 32

GEFSMA_500_meanwind_228.txt.gz
Wind_Speed
18 18 18 18 17 17 17 17 17 16 16 16 15 15 15 15 16 16 15 15 15 15 16 16 16 17 17 17 18 19 20 20 20 20 21 22 22 23 23 23 24 24 25
19 19 19 19 19 18 18 18 18 17 17 16 16 16 16 16 16 16 16 16 16 17 18 17 17 18 19 19 20 20 21 22 22 22 22 23 24 24 24 25 25 25 26
20 20 19 20 20 19 18 18 18 18 18 18 18 18 18 17 17 17 18 18 18 18 18 18 18 18 19 20 21 22 22 23 23 23 24 24 24 24 25 25 26 26 27
20 21 20 19 20 19 18 18 18 18 18 18 18 19 19 18 19 18 18 18 18 19 19 20 20 20 20 21 22 22 23 24 25 25 25 25 26 26 26 27 26 27 28
20 21 20 20 20 20 19 19 18 18 18 18 19 19 19 19 19 19 19 19 20 20 20 21 21 21 22 22 23 23 24 25 26 26 26 27 27 27 28 28 29 28 28
20 20 20 20 20 21 20 19 19 18 18 18 19 19 20 19 19 19 19 20 21 21 22 22 23 23 24 24 24 24 24 25 25 27 28 28 28 29 29 30 31 30 30
20 21 20 20 20 20 19 19 19 19 19 19 19 19 19 20 19 20 21 21 22 23 24 24 25 25 25 26 25 25 25 25 25 26 27 28 30 31 30 31 31 32 32
20 21 19 19 19 18 18 18 19 18 18 18 19 20 20 20 21 21 22 23 24 24 25 25 26 26 26 27 27 27 26 26 27 28 28 28 28 30 32 32 32 33 33
20 20 19 19 18 18 18 19 18 18 17 18 19 20 21 21 21 22 23 24 24 25 26 26 26 26 27 27 27 27 27 28 28 29 29 29 29 30 31 32 33 33 33
20 21 20 19 18 18 18 18 18 17 18 19 20 21 22 22 23 24 24 25 25 25 26 26 26 26 27 28 28 29 29 29 29 29 29 30 31 31 32 34 33 33 34
19 19 19 19 19 18 17 17 17 18 19 19 20 21 22 23 24 24 25 25 26 26 26 26 26 27 28 29 29 29 29 29 30 30 30 31 33 34 34 33 34 34 33
18 18 18 18 18 17 16 17 17 18 19 20 21 21 22 23 23 24 25 25 26 26 27 27 27 28 29 29 29 29 30 30 31 31 31 32 33 33 33 33 33 34 35
18 18 18 18 18 17 17 18 18 19 19 20 20 20 22 23 24 25 25 26 27 27 28 28 28 29 30 30 30 30 31 31 32 32 32 32 33 32 32 33 34 34 35
18 18 18 18 17 17 17 18 19 19 19 20 20 21 23 23 25 26 26 26 27 28 28 28 29 30 31 32 32 32 32 32 32 33 33 33 33 34 34 34 35 35 35
16 17 17 16 16 17 18 19 19 18 18 19 21 21 23 24 25 26 26 27 27 28 28 28 29 30 31 31 31 32 32 32 33 33 33 33 33 34 35 35 36 36 36
16 15 15 15 16 16 17 18 18 18 19 20 20 21 22 24 25 25 26 27 27 28 28 29 29 30 31 31 31 32 32 33 33 33 32 32 33 34 35 36 37 37 37
13 13 14 14 15 16 16 17 17 18 19 19 20 22 22 23 24 25 26 26 27 28 29 29 30 31 31 31 32 32 33 32 33 33 33 33 34 35 36 36 37 38 38
13 13 13 13 15 16 17 17 17 18 19 20 20 21 22 23 24 25 25 26 27 28 29 30 30 31 31 32 32 33 33 32 32 32 32 33 33 34 35 35 36 37 38
10 11 12 13 14 16 16 17 17 18 18 19 21 22 23 23 23 25 25 25 27 28 29 29 30 30 31 32 32 32 32 31 31 31 31 32 33 34 35 35 36 37 38
9 10 12 13 14 15 16 16 16 16 17 19 20 21 23 23 24 24 25 26 27 28 28 28 28 28 29 30 31 30 30 30 30 31 32 33 34 34 34 35 35 36 37
9 10 11 12 13 13 14 15 15 16 17 18 19 20 21 22 23 25 25 26 27 28 28 28 27 27 28 28 28 29 29 29 30 31 32 32 33 33 34 35 36 37 38
9 9 10 11 11 12 12 13 15 16 17 18 19 20 21 22 23 24 25 27 28 28 28 28 28 28 28 28 27 28 28 28 29 30 31 32 32 33 34 35 36 37 38
9 9 10 11 12 13 13 14 15 15 16 17 18 19 21 23 24 25 26 27 28 28 28 28 28 28 28 28 27 27 27 27 29 29 30 31 32 32 33 34 35 36 37
9 9 10 11 12 12 13 14 15 15 16 17 18 20 21 23 24 25 26 27 28 28 28 28 28 28 27 27 28 28 27 27 27 28 29 29 29 30 32 33 34 34 35
8 9 10 10 11 12 13 14 14 15 16 17 18 19 21 24 25 26 26 27 27 27 28 28 28 28 27 27 28 28 27 26 26 26 27 27 27 28 30 31 32 32 33
8 9 10 11 13 13 14 14 15 16 17 18 19 20 22 24 25 26 26 26 27 27 27 27 27 27 27 27 27 26 26 26 25 24 24 25 26 26 27 28 29 30 31